Content
SEND FEEDBACK

Daily
Averages
Monthly
Summary
United States of America

CHAUTAUQUA, NEW YORK


Home > North America > United States > New York
Elevation: 1264 feet     Latitude: 42 17N     Longitude: 079 37W

WEATHER
 
SELECT A DAY
Number of Records: 202,901;   Date Range: 12/11/96 - 8/12/14
 
SHARE

PRINT THIS DATA

[ ← Previous Day ]
WEATHER ALMANAC - FEBRUARY 16, 2014
[ Next Day → ]
[ °C ]   °F
Weather ElementAverageHighLow
Temperature11.6 °F17.6 °F (12:47 pm) (4:53 am)
Dewpoint7.2 °F10.9 °F (10:53 am)-5.1 °F (11:53 pm)
Humidity82.4 %92 % (6:53 pm)73 % (12:47 pm)
Barometer30.11 in30.38 in (11:53 pm)30.02 in (12:47 pm)
Wind Speed4.1 mph9.2 mph (3:53 pm)
Weather ElementAverage
Visibility5.2 mi
Wind DirectionSSW (217.2 °)

Weather ElementTotal
Precipitation0.06 in
Heating Degree Days56.2 (Base 65)
Averaged from 47 records on February 16, 2014
WEATHER CONDITIONS BREAKOUT
WIND DIRECTION BREAKOUT
WEATHER BY HOUR - FEBRUARY 16, 2014
[ °C ]   °F
Local TimeTemperatureDewpointHumidityBarometerVisibilityWind DirectionWind SpeedGust SpeedPrecipitationEventsConditions
12:53 AM10.0 °F5.0 °F80 %30.08 in10.0 miWSW (240°)8.1 mphClear
1:53 AM7.0 °F3.0 °F84 %30.07 in10.0 miSW (220°)4.6 mphClear
2:53 AM6.1 °F3.0 °F87 %30.06 in10.0 miWSW (240°)3.5 mphClear
3:53 AM1.0 °F-2.9 °F83 %30.07 in10.0 miCalmClear
4:53 AM0.0 °F-4.0 °F83 %30.06 in10.0 miCalmClear
5:53 AM0.0 °F-4.0 °F83 %30.05 in10.0 miSouth (170°)3.5 mphClear
6:53 AM3.0 °F-0.9 °F84 %30.06 in10.0 miSSW (200°)3.5 mphOvercast
7:53 AM10.9 °F6.1 °F81 %30.06 in10.0 miSSW (200°)3.5 mphOvercast
8:33 AM10.9 °F6.1 °F81 %30.03 in1.8 miSW (220°)4.6 mph0.00 inSnowLight Snow
8:40 AM12.0 °F7.0 °F80 %30.04 in1.0 miSW (220°)3.5 mph0.00 inSnowLight Snow
8:53 AM12.0 °F8.1 °F84 %30.08 in0.8 miSouth (190°)3.5 mph0.00 inSnowLight Snow
9:05 AM12.0 °F8.1 °F84 %30.04 in1.0 miSSW (200°)3.5 mph0.00 inSnowLight Snow
9:31 AM12.9 °F9.0 °F84 %30.04 in0.8 miCalm0.00 inSnowLight Snow
9:48 AM12.2 °F8.6 °F85 %30.04 in1.0 miCalm0.00 inSnowLight Snow
9:53 AM12.9 °F9.0 °F84 %30.08 in1.0 miCalm0.00 inSnowLight Snow
10:03 AM12.9 °F9.0 °F84 %30.04 in0.8 miCalm0.00 inSnowLight Snow
10:53 AM15.1 °F10.9 °F84 %30.08 in1.0 miCalm0.01 inSnowLight Snow
11:13 AM16.0 °F10.9 °F81 %30.04 in1.2 miCalm0.01 inSnowLight Snow
11:27 AM16.0 °F10.0 °F77 %30.04 in1.0 miNorth (360°)4.6 mph0.01 inSnowLight Snow
11:34 AM15.1 °F10.0 °F80 %30.04 in1.0 miNorth (350°)5.8 mph0.01 inSnowLight Snow
11:50 AM15.8 °F10.4 °F79 %30.04 in0.8 miNorth (350°)4.6 mph0.01 inSnowLight Snow
11:53 AM15.1 °F10.0 °F80 %30.08 in0.8 miNorth (350°)4.6 mph0.01 inSnowLight Snow
12:03 PM15.1 °F10.9 °F84 %30.04 in1.0 miNorth (350°)5.8 mph0.00 inSnowLight Snow
12:22 PM15.1 °F10.0 °F80 %30.03 in1.5 miNorth (350°)5.8 mph0.00 inSnowLight Snow
12:47 PM17.6 °F10.4 °F73 %30.02 in2.0 miNorth (350°)4.6 mph0.00 inSnowLight Snow
12:53 PM17.1 °F10.9 °F77 %30.06 in3.0 miNorth (360°)4.6 mph0.00 inSnowLight Snow
1:06 PM16.0 °F10.9 °F81 %30.02 in2.0 miNorth (350°)5.8 mph0.00 inSnowLight Snow
1:39 PM16.0 °F10.9 °F81 %30.02 in4.0 miNNW (340°)6.9 mph0.00 inSnowLight Snow
1:53 PM16.0 °F10.9 °F81 %30.06 in2.5 miNorth (350°)5.8 mph0.00 inSnowLight Snow
2:37 PM15.1 °F10.9 °F84 %30.02 in4.0 miNNW (340°)5.8 mph0.00 inOvercast
2:53 PM16.0 °F10.9 °F81 %30.06 in5.0 miNNW (340°)3.5 mph0.00 inHaze
3:53 PM15.1 °F9.0 °F77 %30.09 in10.0 miNNW (340°)9.2 mphOvercast
4:53 PM14.0 °F9.0 °F80 %30.14 in10.0 miNorth (350°)4.6 mphOvercast
5:10 PM14.0 °F9.0 °F80 %30.09 in6.0 miCalm0.00 inSnowLight Snow
5:29 PM12.9 °F8.1 °F81 %30.11 in10.0 miCalm0.00 inMostly Cloudy
5:53 PM14.0 °F8.1 °F77 %30.17 in10.0 miWest (260°)3.5 mph0.00 inOvercast
6:53 PM7.0 °F5.0 °F92 %30.23 in10.0 miWSW (250°)4.6 mphMostly Cloudy
7:17 PM9.0 °F6.1 °F88 %30.19 in10.0 miWSW (240°)5.8 mphMostly Cloudy
7:27 PM10.9 °F8.1 °F88 %30.19 in10.0 miWSW (240°)5.8 mphMostly Cloudy
7:53 PM12.0 °F8.1 °F84 %30.25 in5.0 miSW (220°)5.8 mph0.00 inOvercast
8:10 PM12.0 °F8.1 °F84 %30.21 in2.5 miSW (220°)5.8 mph0.00 inSnowLight Snow
8:33 PM10.9 °F7.0 °F84 %30.22 in3.0 miWSW (240°)6.9 mph0.00 inSnowLight Snow
8:45 PM10.9 °F8.1 °F88 %30.23 in4.0 miWSW (240°)5.8 mph0.00 inSnowLight Snow
8:53 PM10.9 °F8.1 °F88 %30.28 in4.0 miWSW (240°)5.8 mph0.00 inOvercast
9:53 PM12.0 °F8.1 °F84 %30.31 in10.0 miWest (260°)8.1 mphOvercast
10:53 PM8.1 °F3.9 °F83 %30.35 in10.0 miWest (260°)4.6 mphClear
11:53 PM0.0 °F-5.1 °F79 %30.38 in10.0 miSSW (210°)4.6 mphClear
Hourly data recorded from KDKK, located miles away from Chautauqua, New York







STORIES FROM OUR PARTNERS